Location: Newark
(48.8833°N, 0.9236°W)
Time: 23:27:18
(UTC+00:00)

Tiros 1 despin weight - Pass Details

Date: 26 November 2019
Orbit: 594 x 642 km, 48.2° (Epoch: 08 December)

Event Time Altitude Azimuth Distance (km) Brightness Sun altitude
Rises 11:04:41 0° 232° (SW) 2,826 ? 19.4°
Reaches altitude 10° 11:07:02 10° 225° (SW) 1,923 ? 19.5°
Maximum altitude 11:11:12 42° 155° (SSE) 846 ? 19.6°
Drops below altitude 10° 11:15:23 10° 84° (E) 1,929 ? 19.7°
Sets 11:17:45 0° 78° (ENE) 2,836 ? 19.8°
